User: anonymous   Login
Location: Caltech
(34.1382°N, 118.1253°W)
Time: 03:27:37
(UTC-08:00)
Language:

Cosmos 1408 Rocket - Orbit

View from above orbital plane
View from above orbital plane
View from above satellite
View from above satellite

Ground track
Ground track

The orbit data is extracted from the following two-line orbital elements,

1 13553U 82092B   17328.47467715 +.00000127 +00000-0 +12229-4 0  9990
2 13553 082.5695 084.7470 0020193 232.6250 173.6871 14.84147469879723
Epoch (UTC): 24 November 2017 11:23:32
Eccentricity: 0.0020193
inclination: 82.5695°
perigee height: 602 km
apogee height: 630 km
right ascension of ascending node: 84.7470°
argument of perigee: 232.6250°
revolutions per day: 14.84147469
mean anomaly at epoch: 173.6871°
orbit number at epoch: 87972

The dashed part of the orbit path shows where the satellite is in the earth's shadow,  

DLR